Regional Weather Roundup
Issued by NWS Sterling, VA

Home | Current Version | Previous Version | Graphics & Text | Print | Product List | Glossary On
Versions: 1 2 3 4 5 6 7 8 9 10 11 12 13 14 15 16 17 18 19 20 21 22 23 24 25 26 27 28 29 30 31 32 33 34 35 36 37 38 39 40 41 42 43 44 45 46 47 48 49 50
754
ASUS41 KLWX 171211
RWRLWX

REGIONAL WEATHER ROUNDUP
NATIONAL WEATHER SERVICE BALTIMORE MD/WASHINGTON DC
700 AM EST WED JAN 17 2018

Note: "FAIR" indicates few or no clouds below 12,000 feet
with no significant weather and/or obstructions to visibility.
 TC=TEMPERATURE CELSIUS

 * =Non NWS site. Station does not report precipitation (e.g. rain,
    snow, etc.), thunder, or fog.

DCZ001-MDZ009-015-VAZ040>042-051-053>054-171300-
WASHINGTON METRO

CITY           SKY/WX    TMP DP  RH WIND       PRES   REMARKS
WASHINGTON NAT FLURRIES  25  20  81 NW15G23   30.39S WCI  13
DULLES         FLURRIES  23  17  78 N13       30.39R WCI  11
ANDREWS AFB    FAIR      25  21  86 NW13      30.35S WCI  13
FT BELVOIR     FAIR      25  18  74 N9G18     30.39R WCI  16
QUANTICO       FLURRIES  28  22  78 N6        30.40  WCI  22
COLLEGE PARK*    N/A     25  20  83 NW7G16    30.38S WCI  17
LEESBURG*      LGT SNOW  25  19  80 N13G20    30.40S WCI  13
MANASSAS*      LGT SNOW  25  20  81 N16G22    30.39R WCI  12
GAITHERSBURG*  FLURRIES  23  19  85 NW12      30.36S WCI  12

$$

MDZ006>007-011-014-171300-
BALTIMORE METRO

CITY           SKY/WX    TMP DP  RH WIND       PRES   REMARKS
BWI AIRPORT    LGT SNOW  27  26  96 W9        30.36R VSB 3/4 WCI  18
MD SCIENCE CTR   N/A     30  26  85 MISG      30.35R
MARTIN STATE   LGT SNOW  30  30 100 W10       30.37R WCI  21
ANNAPOLIS      LGT SNOW  32  29  88 NW9G20    30.35S FOG     WCI  24
FORT MEADE*    CLOUDY    28  25  86 NW9       30.39S WCI  20

$$

MDZ012-015-019>023-171300-
MARYLAND EASTERN SHORE

CITY           SKY/WX    TMP DP  RH WIND       PRES   REMARKS
OCEAN CITY     CLOUDY    35  33  92 NW12      30.29R WCI  27
SALISBURY      CLOUDY    35  31  85 N10       30.29F WCI  27
BAY BRIDGE AP* LGT SNOW  30  28  93 NW10      30.35S FOG     WCI  21
CAMBRIDGE*       N/A     32  30  93 NW14      30.33R FOG     WCI  22
EASTON*        LGT SNOW  32  30  93 NW12      30.37R WCI  23

$$

MDZ017>025-171300-
SOUTHERN MARYLAND

CITY           SKY/WX    TMP DP  RH WIND       PRES   REMARKS
PATUXENT RIVER LGT SNOW  32  31  96 NW14      30.33S FOG     WCI  22
ST INIGOES     LGT SNOW  32  29  88 NW7       30.32S FOG     WCI  26
LEONARDTOWN*   CLOUDY    32  30  93 NW6       30.35S WCI  26

$$

MDZ003>005-171300-
NORTH CENTRAL MARYLAND

CITY           SKY/WX    TMP DP  RH WIND       PRES   REMARKS
FREDERICK*     FLURRIES  25  14  63 NW8       30.43R WCI  16
HAGERSTOWN APT CLOUDY    19  11  70 NW9       30.39R WCI   8
WESTMINSTER*   LGT SNOW  23  19  86 NW13      30.34R WCI  11

$$

MDZ501>502-171300-
WESTERN MARYLAND

CITY           SKY/WX    TMP DP  RH WIND       PRES   REMARKS
OAKLAND*       CLOUDY     3   0  85 CALM      30.24S VSB 1
CUMBERLAND*    MOCLDY    18   5  57 NW8       30.48  WCI   7

$$

VAZ025>031-171300-
SHENANDOAH VALLEY

CITY           SKY/WX    TMP DP  RH WIND       PRES   REMARKS
WINCHESTER*    CLOUDY    21  10  63 NW16      30.40S WCI   7
FRONT ROYAL*   CLOUDY    23  16  74 NE8       30.38R WCI  14
LURAY*         FLURRIES  27  21  80 N7        30.36R WCI  19
NEW MARKET*    NOT AVBL
STAUNTON*      LGT SNOW  24  20  87 N10       30.33R WCI  13
WAYNESBORO*    CLOUDY    25  24  95 N7        30.29R WCI  17

$$

WVZ021-048>050-054>055-171300-
EASTERN WEST VIRGINIA PANHANDLE

CITY           SKY/WX    TMP DP  RH WIND       PRES   REMARKS
MARTINSBURG    MOCLDY    20  10  65 N9        30.39S WCI   9
PETERSBURG*    CLOUDY    19  15  82 CALM      30.39S

$$

VAZ036>039-050-171300-
CENTRAL FOOTHILLS

CITY           SKY/WX    TMP DP  RH WIND       PRES   REMARKS
CHARLOTTESVILL LGT SNOW  31  28  89 NE6       30.32S VSB 1   WCI  25
CULPEPER*      CLOUDY    27  19  70 N16       30.38R WCI  15
ORANGE*        LGT SNOW  27  25  93 NE10      30.35R WCI  17
GORDONSVILLE*  CLOUDY    28  26  96 N7        30.33S WCI  20
WARRENTON*     FLURRIES  26  16  66 N16       30.38R WCI  14

$$

VAZ055>057-171300-
NORTH AND CENTRAL PIEDMONT

CITY           SKY/WX    TMP DP  RH WIND       PRES   REMARKS
FREDERICKSBRG* MIX PCPN  29  26  88 N7        30.36R WCI  22
STAFFORD*      FLURRIES  28  26  91 NW12      30.41R WCI  18

$$

NCZ024-NYZ072-PAZ021-071-VAZ022-071-171300-
OTHER REGIONAL OBSERVATIONS

CITY           SKY/WX    TMP DP  RH WIND       PRES   REMARKS
NEW YORK CITY  CLOUDY    34  33  96 CALM      30.27S FOG
PHILADELPHIA   LGT SNOW  33  30  88 NW13      30.31R FOG     WCI  24
PITTSBURGH     FLURRIES   3   0  87 W12       30.46R WCI -13
ROANOKE        LGT SNOW  24  20  84 N5        30.34S FOG     WCI  18
RICHMOND       LGT SNOW  32  29  88 N10       30.32S FOG     WCI  24
RALEIGH        FLURRIES  35  30  82 N7        30.26S WCI  29

$$

ANZ530>537-171300-
MARINE OBSERVATIONS

STATION/POSITION TIME  TEMP    WIND        PRES
                       AIR SEA DIR/SP/G
                 (UTC) (F)     (DEG/KT/KT) (MB)
THOMAS PT LIGHT  1200   30 32  310/ 12/ 13   N/A
BALT KEY BRIDGE  1148   29     300/ 12/ 13 1028.2R
COVE POINT       1148   31     350/ 17/ 20 1027.8R
LEWISETTA        1148   32 33  350/ 11/ 15 1027.0R
SOLOMONS ISLAND  1148   31 34  330/ 10/ 13 1026.9R
PINEY POINT      1136          360/ 13/ 14   N/A

$$





USA.gov is the U.S. government's official web portal to all federal, state and local government web resources and services.